Location: ????????
(55.6189°N, 38.3031°E)
Time: 23:15:56
(UTC+00:00)

CZ-4B R/B - Pass Details

Date: 15 November 2019
Orbit: 486 x 653 km, 97.8° (Epoch: 15 December)

Event Time Altitude Azimuth Distance (km) Brightness Sun altitude
Rises 02:20:46 0° 15° (NNE) 2,584 6.4 -22.2°
Reaches altitude 10° 02:22:51 10° 17° (NNE) 1,691 5.5 -21.9°
Maximum altitude 02:26:27 79° 103° (ESE) 504 2.6 -21.4°
Enters shadow 02:28:02 32° 188° (S) 862 3.7 -21.1°
